Regional Weather Roundup
Issued by NWS

Home | Current Version | Previous Version | Graphics & Text | Print | Product List | Glossary On
Versions: 1 2 3 4 5 6 7 8 9 10 11 12 13 14 15 16 17 18 19 20 21 22 23 24 25 26 27 28 29 30 31 32 33 34 35 36 37 38 39 40 41 42 43 44 45 46 47 48 49 50
000
ASUS43 KDTX 011910
RWRMI
MICHIGAN HOURLY REGIONAL WEATHER ROUNDUP
NATIONAL WEATHER SERVICE DETROIT/PONTIAC MI
300 PM EDT TUE SEP 01 2015

NOTE: "FAIR" INDICATES FEW OR NO CLOUDS BELOW 12,000 FEET WITH NO
SIGNIFICANT WEATHER AND/OR OBSTRUCTION TO VISIBILITY.

MIZ047>049-052>055-059>063-066>070-074>076-081>083-012000-
SOUTHEAST LOWER MICHIGAN

CITY           SKY/WX    TMP DP  RH WIND       PRES   REMARKS
ADRIAN         CLOUDY    89  66  46 W10       30.08F HX  91
ALMA           MOSUNNY   86  70  58 S7        30.05F HX  90
ANN ARBOR      PTSUNNY   87  68  52 SW6       30.07F HX  90
BAD AXE        MOSUNNY   83  68  61 W7        30.06F
DETROIT CITY   PTSUNNY   86  67  52 VRB3      30.05F
DETROIT        MOSUNNY   88  67  49 SW9       30.06F HX  91
FLINT          MOSUNNY   90  66  45 SW5       30.06F HX  92
GROSSE ILE     SUNNY     82  73  74 SE9       30.05F
HILLSDALE      MOSUNNY   87  66  50 SW7       30.09F
HOWELL         MOSUNNY   88  63  43 W7        30.06F

CITY           SKY/WX    TMP DP  RH WIND       PRES   REMARKS
JACKSON        MOSUNNY   85  68  56 SW9       30.08S
LAMBERTVILLE   MOSUNNY   87  69  53 SW5       30.07F HX  91
LANSING        MOSUNNY   87  68  52 W9        30.06F HX  90
LAPEER         FAIR      87  66  50 SW7       30.06F
MASON          PTSUNNY   86  66  50 SW7       30.07F
MONROE         SUNNY     88  68  51 SW9       30.06F HX  91
MT. CLEMENS    MOSUNNY   83  71  68 E8        30.05F HAZE
PONTIAC        MOSUNNY   88  66  48 W7        30.06F HX  90
PORT HOPE        N/A     74  70  87 SE8       30.04S
PORT HURON     MOSUNNY   84  68  58 W3        30.06F
TRI CITIES     MOSUNNY   87  70  56 SW8       30.05F HX  92
MIDLAND        FAIR      87  66  50 SW9       30.03F
TROY           MOSUNNY   90  63  40 SW8       30.07F HX  91
SAGINAW HB     MOSUNNY   86  70  58 SW7       30.04S HX  90
$$
MIZ043>046-050>051-056>058-064>065-071>073-077>080-012000-
SOUTHWEST LOWER MICHIGAN

CITY           SKY/WX    TMP DP  RH WIND       PRES   REMARKS
BATTLE CREEK   MOSUNNY   87  70  56 SW9       30.07F HX  92
BENTON HARBOR  MOSUNNY   84  73  69 W12       30.04F HX  90
BIG RAPIDS     PTSUNNY   85  69  58 SW10      30.03F
COLDWATER      MOSUNNY   83  68  60 SW5       30.08S
FREMONT        FAIR      86  74  67 SW10      30.03S HX  93
HOLLAND        MOSUNNY   87  72  60 SW10      30.05F HX  93
GRAND RAPIDS   PTSUNNY   87  71  58 SW9       30.04F HX  93
IONIA          FAIR      88  67  50 SW9       30.04F HX  91
KALAMAZOO      PTSUNNY   86  69  56 SW8       30.05F HX  90
LUDINGTON      SUNNY     88  76  66 SW9       30.01S HX  99
MARSHALL       MOSUNNY   86  68  54 W6        30.06F
MOUNT PLEASANT MOSUNNY   90  66  45 SW6       30.03S HX  92
MUSKEGON       MOSUNNY   82  71  69 S14       30.04S
SOUTH HAVEN    MOSUNNY   86  73  65 W7        30.04F HX  93
$$
MIZ016>042-012000-
NORTHERN LOWER MICHIGAN

CITY           SKY/WX    TMP DP  RH WIND       PRES   REMARKS
ALPENA         SUNNY     86  65  49 W7        30.01S
BEAVER ISLAND  MOSUNNY   82  70  68 SW8       29.98S
BELLAIRE       MOSUNNY   87  68  52 S8        29.98F HX  90
CADILLAC       MOSUNNY   85  69  58 SW10      30.04S
CHARLEVOIX     MOSUNNY   85  70  60 S6        30.01F HX  90
FRANKFORT      SUNNY     85  73  67 SW10      29.99S HX  91
GAYLORD        PTSUNNY   85  68  56 SW13      30.03S
GRAYLING       MOSUNNY   85  67  54 SW5       30.04S
HARBOR SPRINGS SUNNY     85  71  62 SW5       29.98F HX  90
HOUGHTON LAKE  SUNNY     84  66  54 SW7       30.04F
MANISTEE       SUNNY     88  70  55 S7        30.00S HX  92
OSCODA         SUNNY     85  69  57 S8        30.01S
PELLSTON       MOSUNNY   86  69  56 SW10      29.98F HX  90
ROGERS CITY    MOSUNNY   84  69  62 E8        30.01S
TRAVERSE CITY  MOSUNNY   89  69  51 SW10      29.97F HX  93
$$
MIZ007>008-015-012000-
EASTERN UPPER MICHIGAN

CITY           SKY/WX    TMP DP  RH WIND       PRES   REMARKS
KINROSS        PTSUNNY   82  72  69 SW6       29.97F
MACKINAC ISLAN MOSUNNY   80  69  69 W9        29.98F
NEWBERRY       MOSUNNY   83  71  67 S9        29.96S
S. S. MARIE    PTSUNNY   83  70  64 SW12      29.95F
MUNISING         N/A     88  71  57 SW9G20    29.90F HX  94
$$
MIZ004>006-011>014-085-012000-
CENTRAL UPPER MICHIGAN

CITY           SKY/WX    TMP DP  RH WIND       PRES   REMARKS
MANISTIQUE     CLOUDY    70  66  88 S10       29.96S FOG
ESCANABA       MOSUNNY   75  68  78 S10       29.93S
MENOMINEE      MOSUNNY   84  72  65 S8        29.93S
SAWYER-GWINN   PTSUNNY   86  68  54 SW13G21   29.93F
$$
MIZ001>003-009>011-084-012000-
WESTERN UPPER MICHIGAN

CITY           SKY/WX    TMP DP  RH WIND       PRES   REMARKS
IRON MOUNTAIN  MOSUNNY   86  65  49 SW10      29.93S
HOUGHTON       PTSUNNY   77  68  73 NW16      29.90S
IRONWOOD       PTSUNNY   81  72  74 S8        29.89R
$$

ABBREVIATIONS USED IN REMARKS
   TC - TEMPERATURE IN CELSIUS
  WCI - WIND CHILL INDEX
   HX - HEAT INDEX
  VSB - VISIBILITY



USA.gov is the U.S. government's official web portal to all federal, state and local government web resources and services.